Weather History for Hettinger, ND

Change the Weather History Date:

Wednesday, January 1, 2014

  Actual Average Record
Temperature  
Mean Temperature 6 °F -  
Max Temperature 12 °F 28 °F 59 °F (1998)
Min Temperature -1 °F 5 °F -11 °F (2002)
Degree Days  
Heating Degree Days 59 49  
Month to date heating degree days 59 49  
Since 1 July heating degree days 3781 3628  
Moisture  
Dew Point 2 °F    
Average Humidity 82    
Maximum Humidity 95    
Minimum Humidity 73    
Precipitation  
Precipitation 0.01 in 0.01 in 0.39 in (2006)
Month to date precipitation 0.01 0.01  
Year to date precipitation 0.01 0.01  
Sea Level Pressure  
Sea Level Pressure 30.29 in    
Wind  
Wind Speed 9 mph (NW)    
Max Wind Speed 20 mph    
Max Gust Speed 23 mph    
Visibility 6 miles    
Events Snow    
T = Trace of Precipitation, MM = Missing Value Source: NWS Daily Summary

Daily Weather History Graph

Daily Weather History Graph

Search for Another Location

Airport:

Trip Planner

Search our weather history database for the weather conditions in past years. The results will help you decide how hot, cold, wet, or windy it might be!

Date:

Astronomy

Jan. 01, 2014 Rise Set
Actual Time 7:32 AM MST 4:16 PM MST
Civil Twilight 6:58 AM MST 4:50 PM MST
Nautical Twilight 6:20 AM MST 5:28 PM MST
Astronomical Twilight 5:44 AM MST 6:04 PM MST
Moon 7:21 AM MST (1/1) 5:08 PM MST (1/1)
Length of Visible Light 9h 52m
Length of Day
8h 43m
New Moon, 0% of the Moon is Illuminated
Jan 1
New Moon
Jan 7
First Quarter
Jan 15
Full
Jan 23
Last Quarter
Jan 30
New

Hourly Weather History & Observations

Time (MST) Temp. Windchill Dew Point Humidity Pressure Visibility Wind Dir Wind Speed Gust Speed Precip Events Conditions
12:53 AM -0.9 °F -15.3 °F -5.1 °F 83% 30.28 in 10.0 mi SE 8.1 mph - N/A   Overcast
1:11 AM -0.9 °F -16.4 °F -5.1 °F 83% 30.08 in 10.0 mi SE 9.2 mph - N/A   Overcast
1:53 AM -0.9 °F -16.4 °F -5.1 °F 83% 30.29 in 9.0 mi SSE 9.2 mph - N/A   Overcast
2:53 AM -0.0 °F -11.6 °F -4.0 °F 83% 30.31 in 10.0 mi South 5.8 mph - N/A   Overcast
3:53 AM 1.0 °F -10.3 °F -0.9 °F 91% 30.32 in 8.0 mi SSW 5.8 mph - N/A   Overcast
4:23 AM 3.0 °F -6.4 °F -0.0 °F 87% 30.13 in 3.0 mi SSW 4.6 mph - N/A   Overcast
4:32 AM 3.0 °F -4.4 °F 1.0 °F 91% 30.12 in 2.5 mi SSW 3.5 mph - N/A   Overcast
4:50 AM 3.2 °F - 1.4 °F 92% 30.12 in 4.0 mi Calm Calm - N/A   Overcast
4:53 AM 3.0 °F - 1.0 °F 91% 30.31 in 5.0 mi Calm Calm - N/A   Overcast
5:08 AM 3.9 °F - 1.0 °F 88% 30.12 in 1.8 mi Calm Calm - 0.00 in Snow Light Snow
5:15 AM 3.9 °F - 1.0 °F 88% 30.12 in 1.5 mi Calm Calm - 0.00 in Snow Light Snow
5:19 AM 3.9 °F - 1.0 °F 88% 30.12 in 3.0 mi Calm Calm - 0.00 in   Overcast
5:53 AM 6.1 °F - 3.0 °F 87% 30.32 in 10.0 mi Calm Calm - 0.00 in   Overcast
6:21 AM 7.0 °F -1.7 °F 3.9 °F 87% 30.13 in 10.0 mi West 4.6 mph - N/A   Overcast
6:53 AM 9.0 °F -5.1 °F 6.1 °F 88% 30.32 in 10.0 mi WNW 10.4 mph - N/A   Overcast
7:49 AM 10.4 °F -4.8 °F 6.8 °F 85% 30.16 in 10.0 mi WNW 12.7 mph - N/A   Overcast
7:53 AM 10.9 °F -4.1 °F 7.0 °F 84% 30.35 in 9.0 mi WNW 12.7 mph - N/A   Overcast
8:16 AM 10.9 °F -2.6 °F 7.0 °F 84% 30.17 in 2.0 mi WNW 10.4 mph - 0.00 in Snow Light Snow
8:23 AM 12.0 °F -1.3 °F 8.1 °F 84% 30.17 in 1.2 mi WNW 10.4 mph - 0.00 in Snow Light Snow
8:53 AM 12.0 °F -2.0 °F 8.1 °F 84% 30.38 in 1.2 mi NW 11.5 mph - 0.00 in Snow Light Snow
9:47 AM 8.6 °F -8.3 °F 5.0 °F 85% 30.24 in 3.0 mi NW 15.0 mph - 0.00 in Snow Light Snow
9:53 AM 10.0 °F -5.2 °F 5.0 °F 80% 30.43 in 3.0 mi NW 12.7 mph - 0.00 in Snow Light Snow
10:03 AM 10.0 °F -6.5 °F 3.9 °F 76% 30.25 in 2.5 mi NW 15.0 mph - 0.00 in Snow Light Snow
10:27 AM 9.0 °F -6.6 °F 3.9 °F 80% 30.25 in 3.0 mi NNW 12.7 mph - 0.00 in Snow Light Snow
10:53 AM 8.1 °F -7.7 °F 3.0 °F 80% 30.45 in 7.0 mi NNW 12.7 mph - 0.00 in   Overcast
11:07 AM 9.0 °F -5.9 °F 1.9 °F 73% 30.25 in 10.0 mi NW 11.5 mph - N/A   Scattered Clouds
11:28 AM 8.1 °F -7.7 °F 1.9 °F 76% 30.24 in 10.0 mi NW 12.7 mph - N/A   Mostly Cloudy
11:53 AM 8.1 °F -6.2 °F 1.9 °F 76% 30.44 in 10.0 mi NW 10.4 mph - N/A   Partly Cloudy
12:53 PM 7.0 °F -9.8 °F 1.0 °F 77% 30.43 in 10.0 mi NW 13.8 mph - N/A   Clear
1:53 PM 7.0 °F -11.6 °F -0.0 °F 73% 30.44 in 10.0 mi WNW 17.3 mph - N/A   Mostly Cloudy
2:53 PM 6.1 °F -11.6 °F -0.0 °F 76% 30.43 in 10.0 mi NW 15.0 mph - N/A   Overcast
3:53 PM 6.1 °F -11.6 °F -0.0 °F 76% 30.45 in 10.0 mi NW 15.0 mph - N/A   Overcast
4:53 PM 5.0 °F -5.6 °F -0.0 °F 80% 30.46 in 10.0 mi NNW 5.8 mph - N/A   Overcast
5:32 PM 5.0 °F -8.1 °F -0.0 °F 80% 30.27 in 10.0 mi NW 8.1 mph - N/A   Overcast
5:53 PM 6.1 °F -6.8 °F -0.0 °F 76% 30.44 in 10.0 mi NW 8.1 mph - N/A   Overcast
6:53 PM 7.0 °F -4.5 °F 1.9 °F 80% 30.43 in 10.0 mi NW 6.9 mph - N/A   Overcast
7:01 PM 7.0 °F -4.5 °F 1.0 °F 77% 30.25 in 10.0 mi NW 6.9 mph - N/A   Overcast
7:53 PM 8.1 °F - 3.0 °F 80% 30.40 in 6.0 mi Calm Calm - 0.00 in Snow Light Snow
8:38 PM 9.0 °F 0.6 °F 3.9 °F 80% 30.22 in 2.0 mi NNE 4.6 mph - 0.00 in Snow Light Snow
8:46 PM 9.0 °F - 3.9 °F 80% 30.22 in 1.5 mi Calm Calm - 0.00 in Snow Light Snow
8:53 PM 9.0 °F 2.4 °F 3.9 °F 80% 30.38 in 1.5 mi East 3.5 mph - 0.00 in Snow Light Snow
9:35 PM 8.1 °F -0.5 °F 3.0 °F 80% 30.21 in 2.0 mi East 4.6 mph - 0.00 in Snow Light Snow
9:53 PM 7.0 °F -1.7 °F 3.0 °F 84% 30.38 in 3.0 mi ESE 4.6 mph - 0.00 in Snow Light Snow
10:16 PM 8.1 °F -2.0 °F 3.0 °F 80% 30.22 in 2.5 mi East 5.8 mph - 0.00 in Snow Light Snow
10:53 PM 7.0 °F -4.5 °F 3.0 °F 84% 30.39 in 2.5 mi East 6.9 mph - 0.00 in Snow Light Snow
11:08 PM 7.0 °F -5.7 °F 3.0 °F 84% 30.21 in 1.8 mi East 8.1 mph - 0.00 in Snow Light Snow
11:53 PM 7.0 °F -3.3 °F 3.0 °F 84% 30.38 in 1.2 mi ESE 5.8 mph - 0.01 in Snow Light Snow